Location: Dehesa de la Cepeda
(40.6574°N, 4.3013°W)
Time: 21:00:16
(UTC+00:00)

Transit 2A Rocket - Pass Details

Date: 10 August 2021
Orbit: 586 x 917 km, 66.7° (Epoch: 28 September)

Event Time Altitude Azimuth Distance (km) Brightness Sun altitude
Rises 10:49:09 0° 168° (SSE) 2,827 8.3 57.6°
Reaches altitude 10° 10:51:54 10° 149° (SSE) 1,961 7.8 58.0°
Maximum altitude 10:54:55 18° 106° (ESE) 1,541 7.4 58.4°
Drops below altitude 10° 10:58:04 10° 63° (ENE) 2,073 7.5 58.8°
Sets 11:01:04 0° 45° (NE) 3,054 8.1 59.2°
